Weather History for Harbor Springs, MI

Change the Weather History Date:

Wednesday, December 26, 2012

  Actual Average (KPLN) Record (KPLN)
Temperature  
Mean Temperature 22 °F -  
Max Temperature 24 °F 24 °F 44 °F (2011)
Min Temperature 19 °F 11 °F -21 °F (1993)
Degree Days  
Heating Degree Days 44    
Moisture  
Dew Point 16 °F    
Average Humidity 78    
Maximum Humidity 83    
Minimum Humidity 73    
Precipitation  
Precipitation 0.00 in - - ()
Sea Level Pressure  
Sea Level Pressure 30.23 in    
Wind  
Wind Speed 7 mph (NNE)    
Max Wind Speed 15 mph    
Max Gust Speed 21 mph    
Visibility 10 miles    
Events      
Averages and records for this station are not official NWS values.
T = Trace of Precipitation, MM = Missing Value Source: NWS Daily Summary

Daily Weather History Graph

Daily Weather History Graph

Search for Another Location

Airport:

Trip Planner

Search our weather history database for the weather conditions in past years. The results will help you decide how hot, cold, wet, or windy it might be!

Date:

Astronomy

Dec. 26, 2012 Rise Set
Actual Time 8:18 AM EST 5:02 PM EST
Civil Twilight 7:44 AM EST 5:36 PM EST
Nautical Twilight 7:06 AM EST 6:14 PM EST
Astronomical Twilight 6:30 AM EST 6:50 PM EST
Moon 3:56 PM EST (12/26) 6:40 AM EST (12/26)
Length of Visible Light 9h 52m
Length of Day
8h 43m
Waxing Gibbous, 97% of the Moon is Illuminated
Dec 26
Waxing Gibbous
Dec 28
Full
Jan 4
Last Quarter
Jan 11
New
Jan 18
First Quarter

Hourly Weather History & Observations

Time (EST) Temp. Windchill Dew Point Humidity Pressure Visibility Wind Dir Wind Speed Gust Speed Precip Events Conditions
12:14 AM 23.4 °F 16.2 °F 17.6 °F 79% 30.36 in 10.0 mi NNE 5.8 mph - N/A   Overcast
12:35 AM 23.4 °F 17.4 °F 17.4 °F 78% 30.34 in 10.0 mi NNE 4.6 mph - N/A   Overcast
12:55 AM 23.4 °F 16.2 °F 17.1 °F 77% 30.34 in 10.0 mi NNE 5.8 mph - N/A   Overcast
1:14 AM 23.4 °F 15.2 °F 16.7 °F 76% 30.34 in 10.0 mi NNE 6.9 mph - N/A   Overcast
1:35 AM 23.2 °F 17.2 °F 15.8 °F 73% 30.34 in 10.0 mi NE 4.6 mph - N/A   Overcast
1:55 AM 23.0 °F 18.4 °F 15.6 °F 73% 30.35 in 10.0 mi ENE 3.5 mph - N/A   Overcast
2:14 AM 23.0 °F 18.4 °F 15.8 °F 74% 30.35 in 10.0 mi NE 3.5 mph - N/A   Overcast
2:35 AM 23.0 °F - 16.3 °F 76% 30.35 in 10.0 mi Calm Calm - N/A   Overcast
2:55 AM 23.0 °F - 17.1 °F 78% 30.35 in 10.0 mi Calm Calm - N/A   Overcast
3:14 AM 23.0 °F - 17.1 °F 78% 30.35 in 10.0 mi Calm Calm - N/A   Overcast
3:35 AM 22.5 °F 17.8 °F 16.5 °F 78% 30.34 in 10.0 mi NNE 3.5 mph - N/A   Overcast
3:55 AM 22.5 °F - 16.3 °F 77% 30.34 in 10.0 mi Calm Calm - N/A   Overcast
4:14 AM 22.8 °F - 16.7 °F 77% 30.33 in 10.0 mi Calm Calm - N/A   Overcast
4:35 AM 22.8 °F 18.2 °F 16.5 °F 77% 30.33 in 10.0 mi North 3.5 mph - N/A   Overcast
4:55 AM 23.0 °F 18.4 °F 16.7 °F 77% 30.32 in 10.0 mi North 3.5 mph - N/A   Overcast
5:14 AM 22.6 °F - 16.5 °F 77% 30.32 in 10.0 mi Calm Calm - N/A   Overcast
5:35 AM 23.0 °F 18.4 °F 16.7 °F 77% 30.30 in 10.0 mi NNE 3.5 mph - N/A   Overcast
5:55 AM 23.0 °F 17.0 °F 16.7 °F 77% 30.29 in 10.0 mi North 4.6 mph - N/A   Overcast
6:14 AM 23.0 °F 18.4 °F 17.1 °F 78% 30.29 in 10.0 mi NNE 3.5 mph - N/A   Overcast
6:35 AM 23.0 °F 15.8 °F 17.4 °F 79% 30.29 in 10.0 mi North 5.8 mph - N/A   Overcast
6:55 AM 22.3 °F 14.9 °F 16.9 °F 80% 30.30 in 10.0 mi North 5.8 mph - N/A   Overcast
7:14 AM 23.0 °F 14.7 °F 17.4 °F 79% 30.29 in 10.0 mi North 6.9 mph - N/A   Overcast
7:35 AM 23.4 °F 15.2 °F 16.9 °F 76% 30.29 in 10.0 mi North 6.9 mph - N/A   Overcast
7:54 AM 23.7 °F 14.7 °F 17.4 °F 77% 30.28 in 10.0 mi North 8.1 mph - N/A   Overcast
8:15 AM 24.4 °F 13.0 °F 18.5 °F 78% 30.27 in 10.0 mi North 12.7 mph - N/A   Overcast
8:35 AM 23.7 °F 14.0 °F 18.5 °F 80% 30.27 in 10.0 mi NNE 9.2 mph - N/A   Overcast
8:54 AM 23.7 °F 12.1 °F 18.3 °F 80% 30.27 in 10.0 mi NNE 12.7 mph 17.3 mph N/A   Overcast
9:14 AM 23.7 °F 13.3 °F 18.3 °F 80% 30.26 in 10.0 mi NNE 10.4 mph - N/A   Overcast
9:35 AM 23.7 °F 11.5 °F 18.5 °F 80% 30.25 in 10.0 mi NNE 13.8 mph 18.4 mph N/A   Overcast
9:54 AM 23.5 °F 13.0 °F 18.3 °F 80% 30.24 in 10.0 mi NE 10.4 mph 17.3 mph N/A   Overcast
10:15 AM 23.7 °F 14.0 °F 18.5 °F 80% 30.25 in 10.0 mi NE 9.2 mph - N/A   Overcast
10:35 AM 24.1 °F 13.7 °F 18.3 °F 79% 30.25 in 10.0 mi NE 10.4 mph 18.4 mph N/A   Overcast
10:54 AM 23.9 °F 12.9 °F 18.3 °F 79% 30.25 in 10.0 mi NE 11.5 mph - N/A   Overcast
11:15 AM 23.4 °F 11.6 °F 17.8 °F 79% 30.24 in 10.0 mi NE 12.7 mph 16.1 mph N/A   Overcast
11:35 AM 23.2 °F 12.0 °F 17.8 °F 80% 30.24 in 10.0 mi NE 11.5 mph - N/A   Overcast
11:54 AM 23.0 °F 13.1 °F 17.8 °F 80% 30.23 in 10.0 mi NNE 9.2 mph - N/A   Overcast
12:15 PM 23.2 °F 12.0 °F 17.8 °F 80% 30.22 in 10.0 mi NE 11.5 mph - N/A   Overcast
12:35 PM 23.0 °F 10.1 °F 17.2 °F 79% 30.21 in 10.0 mi ENE 15.0 mph 20.7 mph N/A   Overcast
12:54 PM 23.0 °F 12.4 °F 17.4 °F 79% 30.20 in 10.0 mi NE 10.4 mph - N/A   Overcast
1:15 PM 22.1 °F 10.0 °F 16.0 °F 77% 30.19 in 10.0 mi NE 12.7 mph 17.3 mph N/A   Overcast
1:35 PM 22.1 °F 8.9 °F 15.1 °F 74% 30.18 in 10.0 mi ENE 15.0 mph - N/A   Overcast
1:54 PM 21.7 °F 11.5 °F 14.9 °F 75% 30.18 in 10.0 mi ENE 9.2 mph 18.4 mph N/A   Overcast
2:15 PM 21.2 °F 10.1 °F 14.9 °F 77% 30.19 in 10.0 mi NE 10.4 mph 20.7 mph N/A   Overcast
2:35 PM 21.7 °F 10.2 °F 15.4 °F 77% 30.19 in 10.0 mi NE 11.5 mph - N/A   Overcast
2:54 PM 21.2 °F 9.5 °F 15.1 °F 77% 30.18 in 10.0 mi NE 11.5 mph 19.6 mph N/A   Overcast
3:15 PM 20.8 °F 7.9 °F 14.5 °F 77% 30.18 in 10.0 mi NE 13.8 mph 19.6 mph N/A   Overcast
3:35 PM 20.7 °F 9.5 °F 14.7 °F 78% 30.19 in 10.0 mi NE 10.4 mph 16.1 mph N/A   Overcast
3:54 PM 20.7 °F 9.5 °F 14.7 °F 78% 30.18 in 10.0 mi NNE 10.4 mph - N/A   Overcast
4:15 PM 20.5 °F 10.0 °F 15.4 °F 81% 30.17 in 10.0 mi NNE 9.2 mph - N/A   Overcast
4:34 PM 20.3 °F 10.6 °F 15.8 °F 83% 30.17 in 10.0 mi NNE 8.1 mph - N/A   Overcast
4:54 PM 19.8 °F 7.7 °F 15.1 °F 82% 30.17 in 10.0 mi NE 11.5 mph 16.1 mph N/A   Overcast
5:15 PM 19.4 °F 7.2 °F 14.7 °F 82% 30.17 in 10.0 mi NE 11.5 mph 16.1 mph N/A   Overcast
5:34 PM 19.4 °F 7.9 °F 14.5 °F 81% 30.17 in 10.0 mi NNE 10.4 mph - N/A   Overcast
5:54 PM 19.8 °F 9.1 °F 14.7 °F 81% 30.17 in 10.0 mi NE 9.2 mph - N/A   Overcast
6:15 PM 19.6 °F 9.7 °F 14.9 °F 82% 30.16 in 10.0 mi NNE 8.1 mph - N/A   Overcast
6:34 PM 19.4 °F 8.6 °F 14.5 °F 81% 30.16 in 10.0 mi NE 9.2 mph - N/A   Scattered Clouds
6:54 PM 19.4 °F 8.6 °F 14.0 °F 80% 30.16 in 10.0 mi NNE 9.2 mph - N/A   Clear
7:15 PM 19.4 °F 10.4 °F 13.8 °F 79% 30.15 in 10.0 mi NNE 6.9 mph - N/A   Scattered Clouds
7:34 PM 19.8 °F 9.9 °F 13.8 °F 78% 30.14 in 10.0 mi NNE 8.1 mph 16.1 mph N/A   Mostly Cloudy
7:55 PM 19.6 °F 8.1 °F 13.8 °F 78% 30.14 in 10.0 mi NE 10.4 mph - N/A   Clear
8:15 PM 19.8 °F 9.9 °F 14.0 °F 78% 30.13 in 10.0 mi NNE 8.1 mph - N/A   Mostly Cloudy
8:34 PM 19.8 °F 9.1 °F 14.0 °F 78% 30.12 in 10.0 mi North 9.2 mph - N/A   Overcast
8:55 PM 19.8 °F 10.8 °F 14.0 °F 78% 30.12 in 10.0 mi NNE 6.9 mph - N/A   Overcast
9:15 PM 19.6 °F 8.9 °F 14.0 °F 79% 30.12 in 10.0 mi NNE 9.2 mph - N/A   Overcast
9:34 PM 19.6 °F 10.6 °F 14.0 °F 79% 30.12 in 10.0 mi NNE 6.9 mph - N/A   Overcast
9:55 PM 19.6 °F 8.9 °F 14.0 °F 79% 30.11 in 10.0 mi NNE 9.2 mph - N/A   Overcast
10:15 PM 19.4 °F 7.9 °F 14.0 °F 80% 30.11 in 10.0 mi NNE 10.4 mph - N/A   Overcast
10:34 PM 19.4 °F 10.4 °F 13.8 °F 79% 30.11 in 10.0 mi NE 6.9 mph 17.3 mph N/A   Overcast
10:55 PM 19.4 °F 9.5 °F 13.6 °F 78% 30.11 in 10.0 mi NNE 8.1 mph - N/A   Mostly Cloudy
11:15 PM 19.4 °F 8.6 °F 13.6 °F 78% 30.12 in 10.0 mi NNE 9.2 mph - N/A   Overcast
11:34 PM 19.4 °F 9.5 °F 13.6 °F 78% 30.12 in 10.0 mi NNE 8.1 mph - N/A   Overcast
11:55 PM 19.4 °F 10.4 °F 13.6 °F 78% 30.12 in 10.0 mi NNE 6.9 mph - N/A   Mostly Cloudy